Other Public Products
Issued by NWS Charleston, SC

Current Version | Previous Version | Graphics & Text | Print | Product List | Glossary On
Versions: 1 2 3 4 5 6 7 8 9 10 11 12 13 14 15 16 17 18 19 20 21 22 23 24 25 26 27 28 29 30 31 32 33 34 35 36 37 38 39 40 41 42 43 44 45 46 47 48 49 50
000
FPUS82 KCHS 280727
OPUCHS

TEST...KCHS/KSAV Gateway Observations...TEST
National Weather Service Charleston SC
300 AM EDT TUE MAR 28 2017

NOTE: "fair" indicates few or no clouds below 12,000 feet with no
significant weather and/or obstructions to visibility.

SCZ050-WAZ558-NCZ071-TXZ119-213-PAZ071-DCZ001-FLZ074-172-MI076-
NYZ176-178-MAZ016-IL014-TNZ027-NJZ106-GAZ044-MD014-280800-

...Gateway Observations for Charleston International...

CITY           SKY/WX    TMP DP  RH WIND       PRES   REMARKS
Chas Airport   PTCLDY    64  59  83 SW7       30.01F
Seattle        LGT RAIN  46  42  86 S13       30.27R
Charlotte      CLOUDY    65  58  78 S16       29.95S
Dallas DFW     CLEAR     61  55  81 E5        29.86F
Dallas Love    PTCLDY    63  54  72 E6        29.87F
Philladelphia  CLOUDY    51  49  92 NE3       29.92F FOG
Wash National  CLOUDY    61  57  87 CALM      29.87F
Baltimore      CLOUDY    54  54 100 CALM      29.88F
Miami          PTCLDY    69  60  73 CALM      30.00F
Detroit        CLOUDY    52  46  80 N7        29.90S
Newark         MOCLDY    46  44  93 N8        29.96F FOG
Laguardia      FOG       43  40  89 NE10      29.96F VSB 1/4
J F K          CLOUDY    48  45  89 NE8       29.97F
Boston Logan   CLOUDY    36  36 100 NE5       30.03F WCI  32
Ft. Lauderdale PTCLDY    70  60  70 CALM      29.99F
Chicago O`Hare CLOUDY    42  36  79 N9        29.98F
Chicago Midway CLOUDY    42  36  79 NE8       29.98F
Houston Bush   MOCLDY    68  67  96 SE3       29.88S
Houston Hobby  MOCLDY    72  70  93 S5        29.87F
Nashville      MOCLDY    58  57  97 W3        29.90R FOG
Atlanta        MOCLDY    63  60  90 SW6       29.96S

$$

GAZ044-118-TXZ119-213-NCZ071-DCZ001-MDZ014-506-PAZ021-071-NJZ106-
NYZ176-178-MAZ106-OHZ011-021-055-MIZ076-KYZ091-ILZ014-INZ047-
MNZ060-ONZ431-280800-

...Gateway Observations for Savannah International...

CITY           SKY/WX    TMP DP  RH WIND       PRES   REMARKS
Savannah Arpt  CLOUDY    66  60  81 S7        30.02F
Atlanta        MOCLDY    63  60  90 SW6       29.96S
Charlotte      CLOUDY    65  58  78 S16       29.95S
Dallas DFW     CLEAR     61  55  81 E5        29.86F
Houston Bush   MOCLDY    68  67  96 SE3       29.88S
Wash National  CLOUDY    61  57  87 CALM      29.87F
Wash Dulles    MOCLDY    55  54  96 S5        29.87F
Baltimore      CLOUDY    54  54 100 CALM      29.88F
Philadelphia   CLOUDY    51  49  92 NE3       29.92F FOG
Newark         MOCLDY    46  44  93 N8        29.96F FOG
Laguardia      FOG       43  40  89 NE10      29.96F VSB 1/4
J F K          CLOUDY    48  45  89 NE8       29.97F
Boston         CLOUDY    36  36 100 NE5       30.03F WCI  32
Pittsburg      MOCLDY    57  51  80 CALM      29.85F
Akron          CLOUDY    53  49  86 NE10      29.85F
Cleveland      CLOUDY    54  46  74 CALM      29.88F
Cincinnati     CLOUDY    56  54  93 S6        29.83S
Columbus       CLOUDY    56  56 100 SW7       29.83S
Detroit        CLOUDY    52  46  80 N7        29.90S
Chicago O`Hare CLOUDY    42  36  79 N9        29.98F
Minneapolis    CLOUDY    43  36  76 SW3       30.05R
Indianapolis   CLOUDY    55  53  93 N12       29.84F
Toronto Canada CLOUDY    46  45  93 N8        29.88S

$$




USA.gov is the U.S. government's official web portal to all federal, state and local government web resources and services.